Location: Byhalia Creek
(34.8270°N, 89.8040°W)
Time: 20:03:18
(UTC+00:00)

Resurs 01 Rocket - Pass Details

Date: 22 April 2026
Orbit: 627 x 635 km, 97.7° (Epoch: 21 May)

Event Time Altitude Azimuth Distance (km) Brightness Sun altitude
Rises 01:41:17 0° 194° (SSW) 2,905 4.9 -13.3°
Reaches altitude 10° 01:43:47 10° 208° (SSW) 2,000 4.2 -13.7°
Maximum altitude 01:47:24 25° 264° (W) 1,259 3.8 -14.4°
Drops below altitude 10° 01:51:02 10° 320° (NW) 2,008 5.3 -15.1°
Sets 01:53:33 0° 334° (NNW) 2,918 5.9 -15.5°
